COSMOS 1771

Satellite information

Favourite Embed

Satellite Type and Status

PAYLOADIN ORBIT

Key statistics

Satellite COSMOS 1771 at a glance.

Uptime

14361

Days in orbit

Revolutions

≈ 13.8

Per day

Orbit

LEO

Low Earth Orbit

Inclination

65.0

Latest

Satellite identification and parameters

Extended collection of information and parameters for COSMOS 1771.

Object identification

Identified? True

Debris? False

Object name: COSMOS 1771

International designator: 1986-062A

Object number (NORAD): 16917

Object ID (CCSDS): 16917

Country: COMMONWEALTH OF INDEPENDENT STATES (CIS)

Current information (Y/N): Y

RCS size: LARGE

Orbital parameters

Period: 104.149 minutes

Inclination: 64.9824 deg

SMA: 7332.682 km

Apoapsis: 993.76 km

Periapsis: 915.333 km

RAAN: 116.7608 deg

Eccentricy: 0.00534783

Argument of periapsis: 342.753 deg

Mean anomaly: 17.171 deg

Mean motion: 13.8263812 rev/day

Mean motion (dot): -0.00000032 rev/day2

B* drag term: 0.00005151197 1/REarth

Two-line elements (TLE)

Creation date: Dec. 12, 2025, 3:16 a.m.

Reference frame: TEME

Reference center: EARTH

Epoch: Dec. 11, 2025, 7:28 p.m. UTC

TLE line 0: 0 COSMOS 1771

TLE line 1: 1 16917U 86062A 25345.81128421 -.00000032 00000-0 51512-4 0 9996

TLE line 2: 2 16917 64.9824 116.7608 0053478 342.7530 17.1710 13.82638120985866

Live tracking on map

Real-time ground track for satellite COSMOS 1771.

In-orbit conjunctions

A list of the most updated potential collisions computed for object COSMOS 1771.

Target Orbit TCA Probability of collision Miss distance Type
COSMOS 1266 LEO 2025-04-23 15:31:36 0.0004423166 190.0 (m) PAYLOAD
METEOR 2-20 DEB LEO 2024-10-15 19:12:45 0.0004686829 516.0 (m) DEBRIS
CZ-6A DEB LEO 2024-09-19 11:48:05 0.0001911357 926.0 (m) DEBRIS
FENGYUN 1C DEB SSO 2024-08-03 13:59:07 0.0009807061 149.0 (m) DEBRIS

Associated space launch

Active radar satellite for ocean surveillance powered by a nuclear reactor.

COSMOS 1771 was lifted into orbit during the mission ‘Tsiklon-2 | US-A 29’, on board a Tsiklon-2 space rocket.

The launch took place on Aug. 20, 1986, 12:58 p.m. from 90.

For more information about the launch, click the button.

Launch to space Tsiklon-2 | US-A 29
Tsiklon-2 | US-A 29

Agency: N/A

Status: Launch Successful

Launch date: Aug. 20, 1986, 12:58 p.m. UTC

Rocket: Tsiklon-2

Launch pad: 90

Location: Baikonur Cosmodrome, Republic of Kazakhstan

...

Latest news about this satellite

There are no fresh news available about this satellite. Check back as we update our databases every day.


Newsletter sign-up

Weekly statistics, charts and insights to help you stay on top of the space industry.